Location: Weatherford
(35.5260°N, 98.7070°W)
Time: 02:22:01
(UTC-05:00)

Amateur Radio Satellites - All Passes

Search period start: 22 August 2017 01:52
Search period end: 23 August 2017 01:52
Location: Weatherford, 35.5260°N, 98.7070°W

Satellite Date Start Highest point End Downlink Frequencies (MHz)
Time Altitude Azimuth
50 SAT 22 Aug 01:54:32 01:57:55 72° 78° (ENE) 02:01:20 437.505
Oscar 19 22 Aug 02:10:26 02:14:24 22° 95° (E) 02:18:18 437.125/150
NANOSAT C BR1 22 Aug 02:19:00 02:22:32 27° 289° (WNW) 02:26:04 145.865
YUBILEINY 22 Aug 02:23:33 02:28:43 17° 66° (ENE) 02:33:52 435.215
POLYITAN 1 22 Aug 02:25:07 02:28:17 21° 291° (WNW) 02:31:28 437.675
M-CUBED/EXP-1 PRIME 22 Aug 02:36:32 02:38:16 12° 301° (WNW) 02:39:58 437.505
EO-79 22 Aug 02:41:24 02:43:39 14° 293° (WNW) 02:45:53 145.935-145.965
QB50P2 22 Aug 02:41:24 02:43:21 13° 294° (WNW) 02:45:18 145.880/145.840
ITUPSAT 1 22 Aug 02:48:56 02:51:15 14° 64° (ENE) 02:53:36 437.325
UKube-1 22 Aug 02:52:24 02:56:36 51° 260° (W) 03:00:49 .
NO-84 22 Aug 02:54:38 02:55:32 11° 325° (NW) 02:56:27 435.350 FM
BUGSAT 1 22 Aug 03:04:02 03:07:40 33° 288° (WNW) 03:11:18 437.445
DX 1 22 Aug 03:18:02 03:20:57 17° 265° (W) 03:23:53 434.975-435.025
MOZHAYETS 4 22 Aug 03:22:46 03:26:27 25° 69° (ENE) 03:30:08
Gurwin Techsat 1B 22 Aug 03:32:07 03:37:27 90° 267° (W) 03:42:46 435.225
BEESAT 22 Aug 03:48:40 03:53:20 61° 74° (ENE) 03:58:01 436.000
Oscar 19 22 Aug 03:48:58 03:53:46 39° 289° (WNW) 03:58:33 437.125/150
YUBILEINY 22 Aug 04:17:53 04:26:37 87° 265° (W) 04:35:19 435.215
ITUPSAT 1 22 Aug 04:23:54 04:28:33 56° 259° (WSW) 04:33:15 437.325
AO-7 22 Aug 04:45:36 04:53:41 53° 102° (ESE) 05:01:41 .
MOZHAYETS 4 22 Aug 04:59:39 05:03:28 26° 264° (W) 05:07:18
KKS-1 22 Aug 05:01:22 05:05:00 25° 69° (ENE) 05:08:37 437.445
ITAMSAT 1 22 Aug 05:10:53 05:16:05 83° 105° (ESE) 05:21:15 435.822/435.867
Gurwin Techsat 1B 22 Aug 05:16:11 05:16:34 10° 299° (WNW) 05:16:56 435.225
CUBESAT XI-V 22 Aug 05:21:54 05:26:33 84° 259° (W) 05:31:15 437.345
BEESAT 3 22 Aug 05:29:01 05:32:58 76° 118° (ESE) 05:37:00 437.485
BEESAT 22 Aug 05:30:01 05:31:26 11° 268° (W) 05:32:52 436.000
STARS 22 Aug 05:36:14 05:39:44 24° 69° (ENE) 05:43:16 437.465
BEESAT 2 22 Aug 05:46:18 05:49:52 33° 113° (ESE) 05:53:31 435.950
DOVE 4 22 Aug 05:52:54 05:54:54 13° 91° (E) 05:56:51 437.250
AO-85 22 Aug 06:06:50 06:10:47 68° 300° (WNW) 06:14:40 145.980
YUBILEINY 22 Aug 06:18:06 06:22:01 14° 282° (WNW) 06:25:57 435.215
KKS-1 22 Aug 06:37:42 06:41:25 26° 263° (W) 06:45:08 437.445
AO-7 22 Aug 06:38:58 06:46:02 32° 299° (WNW) 06:53:04 .
KAITUO 1B 22 Aug 06:45:36 06:46:05 10° 92° (E) 06:46:34 145.475/437.950
ITAMSAT 1 22 Aug 06:53:36 06:54:47 11° 299° (WNW) 06:55:59 435.822/435.867
LilacSat-2 22 Aug 07:10:25 07:13:58 34° 98° (E) 07:17:30 437.200
BEESAT 3 22 Aug 07:10:35 07:11:02 10° 314° (NW) 07:11:29 437.485
STARS 22 Aug 07:12:16 07:15:56 26° 263° (W) 07:19:38 437.465
XW-2D 22 Aug 07:12:49 07:16:21 35° 98° (E) 07:19:53 145.860 - 145.880
NUDT-PHONESAT 22 Aug 07:13:46 07:16:52 24° 96° (E) 07:19:57 437.300
XW-2B 22 Aug 07:23:46 07:27:29 47° 99° (E) 07:31:12 145.730 - 145.750
BEESAT 2 22 Aug 07:24:47 07:27:41 19° 309° (NW) 07:30:37 435.950
DOVE 4 22 Aug 07:28:38 07:32:53 43° 287° (WNW) 07:36:54 437.250
CUTE-I 22 Aug 07:29:50 07:34:55 45° 99° (E) 07:39:57 437.470
SO-50 22 Aug 07:32:02 07:34:29 14° 46° (NE) 07:36:57 436.795
XW-2C 22 Aug 07:42:49 07:46:41 89° 123° (ESE) 07:50:32 145.795 - 145.815
XW-2F 22 Aug 07:53:48 07:57:37 69° 284° (WNW) 08:01:25 145.980 - 146.000
SEEDS 22 Aug 07:59:50 08:01:33 12° 92° (E) 08:03:17 437.485
STRAND 1 22 Aug 08:06:05 08:11:09 68° 74° (ENE) 08:16:13 437.568
PCSat 22 Aug 08:16:16 08:21:24 41° 58° (ENE) 08:26:29 145.827
KAITUO 1B 22 Aug 08:16:38 08:20:15 42° 286° (WNW) 08:23:51 145.475/437.950
HO-68 22 Aug 08:35:33 08:42:35 57° 102° (ESE) 08:49:34 435.675
AAUSAT CUBESAT 2 22 Aug 08:40:05 08:42:39 16° 93° (E) 08:45:13 437.432
FO-29 22 Aug 08:44:26 08:49:25 20° 64° (ENE) 08:54:07 435.910
LilacSat-2 22 Aug 08:45:49 08:47:54 14° 292° (WNW) 08:49:59 437.200
NUDT-PHONESAT 22 Aug 08:47:57 08:50:33 18° 290° (WNW) 08:53:09 437.300
XW-2D 22 Aug 08:48:15 08:50:11 14° 292° (WNW) 08:52:07 145.860 - 145.880
CUTE 1.7 + AOD 2 22 Aug 08:48:17 08:52:35 84° 100° (E) 08:56:52 437.475
XW-2B 22 Aug 09:00:34 09:01:12 10° 293° (WNW) 09:01:49 145.730 - 145.750
UWE-3 22 Aug 09:04:28 09:08:23 34° 98° (E) 09:12:23 435.000/436.395/437.385
Oscar 11 22 Aug 09:10:05 09:12:06 13° 92° (E) 09:14:05 .
CUTE-I 22 Aug 09:10:47 09:14:35 20° 294° (WNW) 09:18:23 437.470
SO-50 22 Aug 09:10:49 09:15:21 66° 243° (WSW) 09:19:56 436.795
ISS 22 Aug 09:13:13 09:15:30 18° 129° (SE) 09:17:49 437.550
Tancredo 1 22 Aug 09:13:59 09:16:54 80° 321° (NW) 09:19:49 437.200
CUBEBUG 2 22 Aug 09:14:40 09:18:56 84° 104° (ESE) 09:23:17 437.445
nSIGHT-1 22 Aug 09:19:15 09:21:50 22° 130° (SE) 09:24:27 .
XW-2A 22 Aug 09:25:12 09:28:33 57° 284° (WNW) 09:31:53 145.665 - 145.685
NO-84 22 Aug 09:27:14 09:30:21 88° 229° (SW) 09:33:44 435.350 FM
O/OREOS (USA 219) 22 Aug 09:27:50 09:31:42 29° 103° (ESE) 09:35:34 437.305
SEEDS 22 Aug 09:33:22 09:37:27 45° 286° (WNW) 09:41:29 437.485
RS-15 22 Aug 09:34:05 09:39:18 14° 96° (E) 09:44:33 29.354- 29.394
ZACube-1 22 Aug 09:40:35 09:44:46 48° 100° (E) 09:49:03 437.345
UNISAT 6 22 Aug 09:46:30 09:49:15 17° 68° (ENE) 09:51:59 437.425
STRAND 1 22 Aug 09:49:06 09:50:44 11° 269° (W) 09:52:22 437.568
PCSat 22 Aug 10:00:18 10:04:27 23° 254° (WSW) 10:08:37 145.827
AO-73 22 Aug 10:00:44 10:05:04 76° 103° (ESE) 10:09:28 145.935
AAUSAT CUBESAT 2 22 Aug 10:14:23 10:18:10 34° 287° (WNW) 10:21:55 437.432
TIGRISAT 22 Aug 10:19:45 10:23:44 36° 72° (ENE) 10:27:39 435.000
HO-68 22 Aug 10:24:13 10:29:48 25° 298° (WNW) 10:35:22 435.675
FO-29 22 Aug 10:26:09 10:33:50 75° 257° (WSW) 10:40:51 435.910
Max Valier Satellite 22 Aug 10:33:08 10:35:45 18° 95° (E) 10:38:22 145.860
UWE-3 22 Aug 10:41:44 10:44:34 17° 291° (WNW) 10:47:26 435.000/436.395/437.385
Oscar 11 22 Aug 10:44:15 10:48:25 45° 286° (WNW) 10:52:34 .
ISS 22 Aug 10:48:42 10:51:46 35° 323° (NW) 10:54:50 437.550
Tancredo 1 22 Aug 10:52:23 10:52:29 10° 335° (NNW) 10:52:36 437.200
nSIGHT-1 22 Aug 10:55:12 10:58:06 29° 325° (NW) 11:01:02 .
PRISM 22 Aug 10:57:14 11:01:23 78° 76° (ENE) 11:05:33 437.425
DELFI C3 22 Aug 11:05:15 11:09:12 69° 101° (E) 11:13:08 145.870
O/OREOS (USA 219) 22 Aug 11:07:37 11:11:04 22° 299° (WNW) 11:14:32 437.305
ZACube-1 22 Aug 11:18:39 11:20:37 13° 293° (WNW) 11:22:37 437.345
UNISAT 6 22 Aug 11:21:40 11:25:40 36° 262° (W) 11:29:38 437.425
EO-88 22 Aug 11:22:49 11:26:28 66° 100° (E) 11:30:07 145.990 - 145.960
JUGNU 22 Aug 11:27:59 11:31:27 16° 174° (S) 11:34:54 437.505
NANOSAT C BR1 22 Aug 11:35:02 11:36:01 11° 65° (ENE) 11:37:01 145.865
RS-15 22 Aug 11:37:29 11:49:32 73° 114° (ESE) 12:01:49 29.354- 29.394
POLYITAN 1 22 Aug 11:39:55 11:42:10 14° 67° (ENE) 11:44:25 437.675
M-CUBED/EXP-1 PRIME 22 Aug 11:42:04 11:46:17 42° 68° (ENE) 11:50:41 437.505
QB50P2 22 Aug 11:53:56 11:57:16 23° 70° (ENE) 12:00:36 145.880/145.840
EO-79 22 Aug 11:54:14 11:57:23 21° 69° (ENE) 12:00:33 145.935-145.965
TIGRISAT 22 Aug 11:57:52 12:00:29 16° 266° (W) 12:03:06 435.000
ESTCUBE 1 22 Aug 12:00:47 12:03:23 15° 93° (E) 12:05:58 437.505/2401.250
Max Valier Satellite 22 Aug 12:06:33 12:09:30 23° 289° (WNW) 12:12:29 145.860
AIST 2D 22 Aug 12:11:44 12:15:12 87° 258° (WSW) 12:18:43 435.315
FO-29 22 Aug 12:17:59 12:19:28 11° 270° (W) 12:20:55 435.910
DUCHIFAT 1 22 Aug 12:21:32 12:25:18 34° 72° (ENE) 12:29:04 145.980
LO-87 22 Aug 12:47:23 12:50:55 82° 282° (WNW) 12:54:26 145.935 - 145.965
NANOSAT C BR1 22 Aug 13:07:07 13:11:12 55° 259° (W) 13:15:19 145.865
POLYITAN 1 22 Aug 13:13:37 13:17:34 40° 261° (W) 13:21:32 437.675
Gurwin Techsat 1B 22 Aug 13:14:10 13:16:11 12° 62° (ENE) 13:18:13 435.225
JUGNU 22 Aug 13:16:06 13:19:43 17° 184° (S) 13:23:18 437.505
M-CUBED/EXP-1 PRIME 22 Aug 13:17:54 13:20:49 17° 263° (W) 13:23:50 437.505
Oscar 19 22 Aug 13:24:28 13:28:30 24° 67° (ENE) 13:32:34 437.125/150
EO-79 22 Aug 13:29:25 13:32:58 26° 263° (W) 13:36:32 145.935-145.965
QB50P2 22 Aug 13:29:30 13:32:55 24° 264° (W) 13:36:21 145.880/145.840
SPROUT 22 Aug 13:30:17 13:34:12 35° 98° (E) 13:38:06 437.525
SRMSAT 22 Aug 13:31:20 13:34:04 13° 170° (S) 13:36:48 437.500
VELOX 1 22 Aug 13:35:28 13:39:25 32° 97° (E) 13:43:21 145.980
ESTCUBE 1 22 Aug 13:36:02 13:40:20 43° 287° (WNW) 13:44:37 437.505/2401.250
BEESAT 3 22 Aug 13:49:21 13:52:05 18° 50° (NE) 13:54:48 437.485
BUGSAT 1 22 Aug 13:49:54 13:54:00 78° 258° (WSW) 13:58:04 437.445
RS-15 22 Aug 13:52:10 14:03:05 36° 317° (NW) 14:14:06 29.354- 29.394
AO-7 22 Aug 13:57:19 13:58:08 10° 48° (NE) 13:58:58 .
DUCHIFAT 1 22 Aug 13:58:27 14:01:02 16° 266° (W) 14:03:36 145.980
AO-85 22 Aug 14:39:57 14:44:04 40° 57° (ENE) 14:48:30 145.980
UKube-1 22 Aug 14:42:26 14:46:15 31° 98° (E) 14:50:04 .
Gurwin Techsat 1B 22 Aug 14:50:06 14:55:25 77° 257° (WSW) 15:00:45 435.225
50 SAT 22 Aug 14:51:20 14:54:41 71° 283° (WNW) 14:58:00 437.505
ITAMSAT 1 22 Aug 14:51:45 14:52:16 10° 61° (ENE) 14:52:47 435.822/435.867
Oscar 19 22 Aug 15:02:54 15:07:35 35° 262° (W) 15:12:19 437.125/150
JUGNU 22 Aug 15:06:29 15:07:56 11° 194° (SSW) 15:09:21 437.505
SPROUT 22 Aug 15:07:08 15:09:47 16° 292° (WNW) 15:12:24 437.525
DX 1 22 Aug 15:07:21 15:11:42 81° 284° (WNW) 15:16:01 434.975-435.025
VELOX 1 22 Aug 15:12:27 15:15:37 20° 292° (WNW) 15:18:45 145.980
SRMSAT 22 Aug 15:18:47 15:22:28 17° 180° (S) 15:26:09 437.500
YUBILEINY 22 Aug 15:21:13 15:27:21 22° 81° (E) 15:33:27 435.215
BEESAT 3 22 Aug 15:26:08 15:29:45 34° 246° (WSW) 15:33:18 437.485
Tancredo 1 22 Aug 15:39:16 15:41:41 23° 34° (NE) 15:44:04 437.200
AO-7 22 Aug 15:40:58 15:49:04 56° 67° (ENE) 15:57:09 .
BEESAT 2 22 Aug 15:43:41 15:47:44 79° 242° (WSW) 15:51:43 435.950
ISS 22 Aug 15:44:05 15:44:54 11° 23° (NNE) 15:45:43 437.550
nSIGHT-1 22 Aug 15:49:40 15:51:00 12° 25° (NNE) 15:52:18 .
BEESAT 22 Aug 15:52:34 15:56:00 19° 95° (E) 15:59:25 436.000
RS-15 22 Aug 16:14:45 16:21:04 15° 350° (N) 16:27:19 29.354- 29.394
UKube-1 22 Aug 16:18:58 16:22:02 19° 292° (WNW) 16:25:06 .
AO-85 22 Aug 16:21:08 16:24:14 18° 249° (WSW) 16:27:29 145.980
ITAMSAT 1 22 Aug 16:25:44 16:30:56 88° 251° (WSW) 16:36:09 435.822/435.867
ITUPSAT 1 22 Aug 16:27:14 16:31:50 45° 100° (E) 16:36:24 437.325
DOVE 4 22 Aug 16:55:02 16:57:30 13° 65° (ENE) 16:59:57 437.250
MOZHAYETS 4 22 Aug 16:56:30 17:01:09 88° 101° (E) 17:05:47
SRMSAT 22 Aug 17:07:58 17:10:52 14° 190° (S) 17:13:45 437.500
Tancredo 1 22 Aug 17:14:27 17:16:46 22° 229° (SW) 17:19:06 437.200
YUBILEINY 22 Aug 17:14:29 17:23:14 70° 278° (W) 17:32:00 435.215
ISS 22 Aug 17:18:41 17:21:55 64° 40° (NE) 17:25:09 437.550
CUBESAT XI-V 22 Aug 17:21:44 17:25:53 30° 97° (E) 17:30:00 437.345
nSIGHT-1 22 Aug 17:24:35 17:27:49 81° 41° (NE) 17:31:02 .
BEESAT 22 Aug 17:29:28 17:33:50 36° 289° (WNW) 17:38:11 436.000
AO-7 22 Aug 17:35:05 17:42:03 29° 263° (W) 17:49:05 .
LilacSat-2 22 Aug 17:51:26 17:52:41 11° 67° (ENE) 17:53:58 437.200
XW-2D 22 Aug 17:53:09 17:54:26 11° 67° (ENE) 17:55:43 145.860 - 145.880
XW-2B 22 Aug 18:03:17 18:05:28 15° 69° (ENE) 18:07:39 145.730 - 145.750
ITUPSAT 1 22 Aug 18:06:16 18:09:15 17° 294° (WNW) 18:12:13 437.325
XW-2C 22 Aug 18:21:23 18:24:31 26° 72° (ENE) 18:27:41 145.795 - 145.815
DOVE 4 22 Aug 18:29:18 18:34:34 69° 259° (W) 18:39:45 437.250
KKS-1 22 Aug 18:30:33 18:35:00 74° 103° (ESE) 18:39:24 437.445
XW-2F 22 Aug 18:31:38 18:34:59 32° 73° (ENE) 18:38:22 145.980 - 146.000
RS-15 22 Aug 18:32:03 18:40:38 21° 28° (NNE) 18:48:56 29.354- 29.394
CUTE-I 22 Aug 18:48:31 18:53:44 55° 73° (ENE) 18:58:57 437.470
KAITUO 1B 22 Aug 18:53:08 18:56:43 49° 75° (ENE) 19:00:20 145.475/437.950
CUBESAT XI-V 22 Aug 18:59:22 19:03:03 23° 291° (WNW) 19:06:44 437.345
HO-68 22 Aug 19:01:29 19:07:33 31° 64° (ENE) 19:13:37 435.675
STARS 22 Aug 19:03:32 19:07:53 69° 102° (ESE) 19:12:12 437.465
YUBILEINY 22 Aug 19:19:37 19:21:42 11° 298° (WNW) 19:23:47 435.215
NUDT-PHONESAT 22 Aug 19:22:47 19:26:24 62° 259° (W) 19:30:03 437.300
LilacSat-2 22 Aug 19:23:00 19:26:33 40° 262° (W) 19:30:09 437.200
XW-2D 22 Aug 19:24:40 19:28:12 39° 262° (W) 19:31:45 145.860 - 145.880
XW-2B 22 Aug 19:36:04 19:39:21 29° 263° (W) 19:42:41 145.730 - 145.750
CUTE 1.7 + AOD 2 22 Aug 19:37:46 19:41:39 38° 73° (ENE) 19:45:36 437.475
O/OREOS (USA 219) 22 Aug 19:40:15 19:44:27 35° 65° (ENE) 19:48:38 437.305
XW-2A 22 Aug 19:53:44 19:56:27 24° 72° (ENE) 19:59:10 145.665 - 145.685
XW-2C 22 Aug 19:56:15 19:58:40 16° 266° (W) 20:01:08 145.795 - 145.815
UWE-3 22 Aug 19:59:23 20:02:19 19° 69° (ENE) 20:05:14 435.000/436.395/437.385
XW-2F 22 Aug 20:07:26 20:09:11 13° 267° (W) 20:10:56 145.980 - 146.000
CUBEBUG 2 22 Aug 20:09:43 20:13:48 45° 74° (ENE) 20:17:49 437.445
STRAND 1 22 Aug 20:20:01 20:24:26 29° 97° (E) 20:28:49 437.568
SEEDS 22 Aug 20:21:17 20:25:27 79° 78° (ENE) 20:29:42 437.485
CUTE-I 22 Aug 20:30:53 20:34:03 16° 267° (W) 20:37:13 437.470
ZACube-1 22 Aug 20:33:56 20:37:19 25° 71° (ENE) 20:40:42 437.345
RS-15 22 Aug 20:44:14 20:56:11 65° 56° (NE) 21:07:26 29.354- 29.394
HO-68 22 Aug 20:48:12 20:54:59 45° 260° (W) 21:01:48 435.675
AO-73 22 Aug 20:53:22 20:57:10 37° 73° (ENE) 21:00:59 145.935
AAUSAT CUBESAT 2 22 Aug 21:00:31 21:04:40 82° 259° (W) 21:08:52 437.432
CUTE 1.7 + AOD 2 22 Aug 21:15:14 21:17:36 15° 267° (W) 21:20:00 437.475
O/OREOS (USA 219) 22 Aug 21:20:26 21:23:32 18° 260° (W) 21:26:38 437.305
XW-2A 22 Aug 21:27:29 21:29:09 13° 266° (W) 21:30:50 145.665 - 145.685
UWE-3 22 Aug 21:34:54 21:38:34 29° 263° (W) 21:42:11 435.000/436.395/437.385
Oscar 11 22 Aug 21:35:22 21:39:40 90° 43° (NE) 21:44:00 .
FO-29 22 Aug 21:42:35 21:44:54 13° 90° (E) 21:47:09 435.910
DELFI C3 22 Aug 21:47:46 21:51:03 25° 71° (ENE) 21:54:21 145.870
CUBEBUG 2 22 Aug 21:48:58 21:50:36 12° 267° (W) 21:52:13 437.445
EO-88 22 Aug 21:58:24 22:00:51 17° 70° (ENE) 22:03:20 145.990 - 145.960
STRAND 1 22 Aug 21:59:11 22:03:29 28° 291° (WNW) 22:07:46 437.568
ZACube-1 22 Aug 22:10:21 22:13:31 21° 265° (W) 22:16:42 437.345
AO-73 22 Aug 22:31:21 22:33:32 14° 267° (W) 22:35:42 145.935
Max Valier Satellite 22 Aug 22:41:22 22:45:00 87° 256° (WSW) 22:48:40 145.860
PRISM 22 Aug 22:43:15 22:45:10 13° 93° (E) 22:47:04 437.425
PCSat 22 Aug 22:54:24 22:59:46 71° 113° (ESE) 23:05:11 145.827
RS-15 22 Aug 22:57:50 23:07:43 33° 256° (WSW) 23:17:12 29.354- 29.394
ESTCUBE 1 22 Aug 22:59:58 23:00:13 10° 64° (ENE) 23:00:30 437.505/2401.250
UNISAT 6 22 Aug 23:15:29 23:19:45 54° 100° (E) 23:24:05 437.425
LO-87 22 Aug 23:20:47 23:23:38 23° 72° (ENE) 23:26:29 145.935 - 145.965
SO-50 22 Aug 23:21:52 23:26:22 82° 119° (ESE) 23:30:53 436.795
DELFI C3 22 Aug 23:22:47 23:25:44 20° 265° (W) 23:28:43 145.870
FO-29 22 Aug 23:25:11 23:30:32 58° 287° (WNW) 23:35:35 435.910
EO-88 22 Aug 23:31:25 23:34:20 23° 264° (W) 23:37:16 145.990 - 145.960
TIGRISAT 22 Aug 23:49:56 23:54:13 63° 284° (WNW) 23:58:35 435.000
PRISM 23 Aug 00:16:44 00:20:35 40° 287° (WNW) 00:24:24 437.425
SPROUT 23 Aug 00:21:15 00:24:16 19° 69° (ENE) 00:27:18 437.525
VELOX 1 23 Aug 00:30:10 00:33:27 21° 68° (ENE) 00:36:45 145.980
ESTCUBE 1 23 Aug 00:31:54 00:36:23 69° 258° (WSW) 00:40:55 437.505/2401.250
PCSat 23 Aug 00:40:24 00:43:42 16° 311° (NW) 00:47:00 145.827
NO-84 23 Aug 00:41:54 00:44:41 33° 129° (SE) 00:47:21 435.350 FM
UNISAT 6 23 Aug 00:54:26 00:55:58 12° 294° (WNW) 00:57:32 437.425
NANOSAT C BR1 23 Aug 00:54:29 00:58:05 27° 97° (E) 01:01:40 145.865
LO-87 23 Aug 00:54:35 00:56:59 17° 265° (W) 00:59:22 145.935 - 145.965
M-CUBED/EXP-1 PRIME 23 Aug 00:58:07 01:02:12 46° 103° (ESE) 01:05:57 437.505
POLYITAN 1 23 Aug 01:01:05 01:05:00 37° 98° (E) 01:08:55 437.675
SO-50 23 Aug 01:05:51 01:07:23 12° 316° (NW) 01:08:56 436.795
AIST 2D 23 Aug 01:12:38 01:16:02 43° 285° (WNW) 01:19:25 435.315
EO-79 23 Aug 01:16:04 01:20:12 58° 100° (E) 01:24:21 145.935-145.965
QB50P2 23 Aug 01:16:10 01:20:22 65° 101° (E) 01:24:33 145.880/145.840
50 SAT 23 Aug 01:19:39 01:22:18 21° 71° (ENE) 01:24:57 437.505
UKube-1 23 Aug 01:34:32 01:37:33 19° 68° (ENE) 01:40:34 .
BUGSAT 1 23 Aug 01:35:24 01:38:07 17° 95° (E) 01:40:50 437.445
DUCHIFAT 1 23 Aug 01:43:16 01:47:27 83° 283° (WNW) 01:51:38 145.980
